Location: Unspecified
(0.0000°N, 0.0000°E)
Time: 07:46:19
(UTC+00:00)

Vanguard 2 Rocket - Pass Details

Date: 09 October 2022
Orbit: 555 x 3321 km, 32.9° (Epoch: 06 December)

Event Time Altitude Azimuth Distance (km) Brightness Sun altitude
Rises 05:01:19 0° 308° (NW) 3,416 - -11.4°
Exits shadow 05:03:54 - 310° (NW) 2,338 8.5 -10.8°
Reaches altitude 10° 05:04:12 10° 310° (NW) 2,213 8.4 -10.7°
Maximum altitude 05:08:57 72° 34° (NE) 619 6.2 -9.5°
Drops below altitude 10° 05:12:50 10° 119° (ESE) 1,823 9.7 -8.6°
Sets 05:15:00 0° 121° (ESE) 2,749 10.7 -8.0°
